www.pogodaiklimat.ru

Погода и климат >> Архив погоды >> Россия >> Якутия >> Столб Остров


ПОГОДА на Столб Острове

  • Прогноз погоды на Столб Острове
  • Монитор погоды на Столб Острове
  • Климат города

АРХИВ ПОГОДЫ на Столб Острове

Время (UTC), дата Ветер
(напр.,м/с)
 
Видим.   Явления Облачность Т
(С)
Тd
(С)
f
(%)
Тe
(С)
Тes
(С)
Комфортность P
(гПа)
Po
(гПа)
Тmin
(С)
Tmax
(С)
R
(мм)
R24
(мм)
S
(см)
06 8.08 В 7-10
{12}
50 км 10/0
[Ci fib]
+15.3 +8.4 63 +14 +15 1015.4 1013.1
09 8.08 В 8-11
{13}
50 км 10/0
[Ci fib]
+15.1 +9.5 69 +13 +13 1015.3 1013.0
12 8.08 В 7-10
{12}
50 км 10/0
[Ci fib]
+13.4 +9.5 77 +11 +11 1015.7 1013.3 +15.7
15 8.08 В 6-10
{11}
50 км 8/0
[Ci fib]
+10.8 +8.4 85 +8 +8 1015.2 1012.8
18 8.08 ЮВ 4
{10}
50 км 3/0
[Ci fib]
+9.0 +7.7 92 +6 +6 1015.1 1012.7
21 8.08 В 7 50 км 1/0
[Ci fib]
+11.2 +8.6 84 +8 +8 1014.7 1012.3
00 9.08 В 8-10
{12}
50 км ясно +13.6 +8.6 72 +11 +12 1014.5 1012.1 +8.5
03 9.08 В 10-11
{13}
50 км ясно +14.8 +8.3 65 +12 +13 1014.3 1012.0
06 9.08 В 10-12
{14}
50 км ясно +15.3 +8.9 66 +13 +13 1013.7 1011.4
09 9.08 В 9-10
{13}
50 км ясно +13.4 +9.1 75 +11 +11 1013.6 1011.4
12 9.08 В 9-10
{12}
50 км 3/3 300 м
[Sc]
+11.1 +9.5 90 +7 +7 1013.2 1010.8 +15.7
15 9.08 В 9-10
{12}
50 км 4/4 300 м
[Sc]
+7.3 +3 +3 1013.0 1010.6
18 9.08 ЮВ 6 50 км 3/3 300 м
[Sc]
+8.9 +7.9 93 +5 +5 1011.5 1009.1
21 9.08 В 7 50 км 3/3 300 м
[Sc]
+9.0 +8.0 93 +5 +5 1010.9 1008.5
00 10.08 В 8 50 км 1/1 300 м
[Sc]
+12.5 +9.4 81 +9 +10 1009.7 1007.3 +7.6
03 10.08 В 7 50 км ясно +14.1 +9.0 71 +12 +14 1009.0 1006.7
06 10.08 В 7 50 км ясно +15.5 +9.3 67 +14 +15 1007.5 1005.2
09 10.08 В 8 50 км ясно +16.9 +10.5 66 +16 +16 1006.0 1003.7
12 10.08 В 6 50 км ясно +14.6 +10.4 76 +13 +13 1005.6 1003.3 +16.9
15 10.08 ЮВ 3 50 км 10/0
[Ac trans Ci fib]
+11.8 +9.8 88 +10 +10 1005.2 1002.8
18 10.08 ЮВ 5 50 км 10/1 600 м
[Sc Ci fib]
+12.2 +9.7 85 +10 +10 1004.5 1002.2
21 10.08 ЮВ 3 50 км 10/0
[Ci fib]
+13.0 +9.5 79 +12 +12 1004.3 1002.0
00 11.08 ЮВ 1 50 км 10/0
[Ci fib]
+18.0 +10.8 63 +19 +23 1004.4 1002.1 +10.7
03 11.08 В 3 50 км 10/0
[Ci fib]
+21.1 +13.6 62 +24 +28 комфорт 1003.9 1001.6
06 11.08 штиль 0 50 км 10/0
[Cs]
+22.4 +15.0 63 +26 +31 жарко 1003.7 1001.4
09 11.08 В 3 50 км 10/0
[Ci fib]
+19.4 +13.5 69 +21 +22 комфорт 1003.9 1001.6
12 11.08 ЮВ 3 50 км 10/0
[Ci fib]
+16.0 +11.2 73 +16 +16 1004.3 1002.0 +22.5
15 11.08 ЮВ 2 50 км 10/0
[Ci fib]
+14.2 +10.2 77 +14 +14 1005.0 1002.7
18 11.08 ЮВ 1 50 км 10/0
[Ci fib]
+14.0 +12.7 92 +14 +14 1005.7 1003.4
21 11.08 ЮЗ 2 50 км 10/0
[Ci fib]
+13.5 +12.6 94 +13 +13 1006.4 1004.1
00 12.08 Ю 3 50 км 8/0
[Cc]
+16.3 +13.6 84 +16 +19 1007.1 1004.8 +12.6
03 12.08 Ю 1 50 км 10/0
[Ac und]
+17.5 +15.1 86 +19 +21 1007.6 1005.3
06 12.08 Ю 2 50 км 10/0
[Ac trans Cc]
+20.0 +11.3 57 +22 +25 комфорт 1007.7 1005.4
09 12.08 В 3 50 км 8/0
[Cc]
+21.9 +10.9 50 +24 +25 комфорт 1007.6 1005.3
12 12.08 Ю 3 50 км 4/0
[Ci fib]
+18.8 +10.5 59 +20 +20 1007.8 1005.5 +21.9
15 12.08 Ю 5 50 км 4/0
[Ci fib]
+16.2 +11.8 75 +15 +15 1008.0 1005.7
18 12.08 Ю 6 20 км 4/0
[Ci fib]
+16.3 +14.6 90 +15 +15 1009.7 1007.4
21 12.08 ЮВ 6 20 км дым 4/0
[Ci fib]
+16.8 +15.5 92 +16 +16 1008.7 1006.4
00 13.08 Ю 8 20 км дым 6/0
[Ci fib]
+18.7 +14.2 75 +19 +19 1009.9 1007.6 +15.2
03 13.08 ЮВ 9 20 км 8/0
[Ci fib]
+20.3 +15.8 75 +22 +23 комфорт 1008.6 1006.3
06 13.08 ЮВ 6-10
{13}
20 км 10/0
[Ci fib]
+22.1 +13.3 57 +25 +26 комфорт 1007.7 1005.4
09 13.08 Ю 6-10
{13}
20 км 10/0
[Ci fib]
+20.1 +11.4 57 +21 +22 комфорт 1008.1 1005.8
12 13.08 ЮВ 7-11
{13}
10 км слабый дождь 10/0
[Ac As]
+16.5 +15.5 94 +15 +15 1008.0 1005.7 +22.7 0.4
15 13.08 ЮВ 9-11
{14}
20 км {дождь} 10/0
[Ac und]
+17.7 +14.0 79 +17 +17 1007.1 1004.8
18 13.08 ЮВ 8-10
{13}
20 км {дождь} 10/0
[Ac und]
+15.7 +11.8 78 +14 +14 1007.5 1005.2
21 13.08 Ю 9-11
{13}
20 км 10/0
[Ci fib]
+16.1 +11.6 75 +14 +14 1008.0 1005.7
00 14.08 Ю 7
{13}
20 км 10/0
[Ci fib]
+18.2 +13.8 75 +18 +19 1008.8 1006.5 +15.4
03 14.08 Ю 7
{13}
20 км 10/0
[Ci fib]
+19.9 +14.0 69 +21 +23 комфорт 1009.1 1006.8
06 14.08 Ю 6
{14}
20 км 10/0
[Ci fib]
+20.3 +14.3 68 +22 +24 комфорт 1008.9 1006.6
09 14.08 ЮВ 6
{10}
20 км 10/0
[Ci fib]
+21.4 +14.4 64 +24 +25 комфорт 1007.5 1005.2
12 14.08 З 4 20 км 10/0
[Ac trans Ci fib]
+19.9 +14.8 72 +22 +22 комфорт 1007.4 1005.1 +21.6
15 14.08 З 3 50 км {ливн. осадки} 10/10
[Cb cap Ac As]
+13.5 +12.4 93 +12 +12 1008.2 1005.9
18 14.08 З 3 50 км {ливн. осадки, дождь} 10/0
[Ac trans Ci fib]
+13.3 +12.2 93 +12 +12 1009.1 1006.8
21 14.08 ЮЗ 4 50 км 8/0
[Ac trans Ci fib]
+12.0 +10.1 88 +10 +10 1010.0 1007.6
00 15.08 Ю 5 50 км 6/3 600 м
[Sc Ci fib]
+14.9 +12.0 83 +13 +15 1009.2 1006.9 +11.9
03 15.08 Ю 5 50 км 4/0
[Ci fib]
+18.1 +11.3 64 +18 +21 1008.3 1006.0

 

Местоположение метеостанции Столб Остров (Якутия, Россия): широта 72.40 долгота 126.30 высота над уровнем моря 20 м.

В архиве по умолчанию представлена погода на Столб Острове за последнюю неделю. Архивные данные за месяц целиком и за предыдущие месяцы, начиная с января 2011 года, Вы можете получить, выбрав интересующий диапазон дат из раскрывающегося списка и нажав кнопку "Ввод!".


*Определитесь, кто Вы:
робот инопланетянин человек

Внимание! Время в таблицах - всемирное. Для получения местного времени необходимо прибавить поправку, которая на Столб Острове равна 9 ч.

Смотрите также архив погоды в соседних городах и на ближайших метеорологических станциях:

Погода на Мысе Быков (Якутия, Россия) (105 км)
Погода в Тюмяти (Якутия, Россия) (109 км)
Погода в Тикси (Якутия, Россия) (128 км)
Погода в Кюсюре (Якутия, Россия) (195 км)
Погода в Усть-Оленеке (Якутия, Россия) (225 км)
Погода в Юбилейной (Якутия, Россия) (392 км)
Погода в Джарджане (Якутия, Россия) (417 км)
Погода в Саскылахе (Якутия, Россия) (421 км)
Погода в Усть-Куйге (Якутия, Россия) (426 км)
Погода в Анабаре (Якутия, Россия) (430 км)

Пояснения к столбцам:

Ветер - указаны скорость ветра в м/с - средняя за 10 мин, порывы в срок и между сроками (в фигурных скобках) и направление, откуда дует ветер: С - северный, СВ - северо-восточный, В - восточный, ЮВ - юго-восточный, Ю - южный, ЮЗ - юго-западный, З - западный, СЗ - северо-западный.
Видимость - горизонтальная дальность видимости в метрах или километрах. При видимости от 1 до 10 км при отсутствии осадков обычно наблюдается дымка, при ухудшении видимости до 1 км и менее - туман. В сухую погоду видимость может ухудшаться дымом, пылью или мглою.
Явления - указаны атмосферные явления, наблюдавшиеся в срок или в последний час перед сроком; фигурными скобками обозначены явления, наблюдавшиеся между сроками (за 1-3 часа до срока); квадратными скобками обозначены град или гололедные отложения с указанием их диаметра в мм.
Облачность - указаны через наклонную черту общая и нижняя облачность в баллах и высота нижней границы облаков в метрах; квадратными скобками обозначены формы облаков: Ci - перистые, Cs - перисто-слоистые, Cc - перисто-кучевые, Ac - высококучевые, As - высокослоистые, Sc - слоисто-кучевые, Ns - слоисто-дождевые, Cu - кучевые, Cb - кучево-дождевые. Подробнее классификацию облаков см. в Атласе облаков (PDF).
T - Температура воздуха - температура, измеренная на высоте 2 м над землей.
Td - Температура точки росы - температура, при понижении до которой содержащийся в воздухе водяной пар достигнет насыщения.
f - Относительная влажность воздуха - влажноcть воздуха, измеренная на высоте 2 м над землей.
Te - Эффективная температура - температура, которую ощущает одетый по сезону человек в тени. Характеристика душности погоды. При расчете учитывается влияние влажности воздуха и скорости ветра на теплоощущения человека.
Tes - Эффективная температура на солнце - температура, которую ощущает человек, с поправкой на солнечный нагрев. Характеристика знойности погоды. Зависит от высоты солнца над горизонтом, облачности и скорости ветра. Ночью, в пасмурную погоду, а также при ветре 12 м/с и более поправка равна нулю.
P - Атмосферное давление - приведенное к уровню моря атмосферное давление.
Po - Атмосферное давление - измеренное на уровне метеостанции атмосферное давление.
Tmin - Минимальная температура - минимум температуры воздуха на высоте 2 м над землей.
Tmax - Максимальная температура - максимум температуры воздуха на высоте 2 м над землей.
R - Количество осадков - Количество выпавших осадков за период времени, мм. При наведении курсора мыши на число - период времени, за который выпало указанное количество осадков.
R24 - Количество осадков - Количество выпавших осадков за 24 часа, мм.
S - Снежный покров - Высота снежного покрова, см. При наведении курсора мыши на число - состояние снежного покрова и степень покрытия местности в баллах.